Change the Weather History Date:

Saturday, September 29, 2012

  Actual Average Record
Temperature  
Mean Temperature 67 °F -  
Max Temperature 84 °F 65 °F 84 °F (2012)
Min Temperature 50 °F 41 °F 25 °F (1984)
Cooling Degree Days 2    
Growing Degree Days 17 (Base 50)    
Moisture  
Dew Point 35 °F    
Average Humidity 35    
Maximum Humidity 66    
Minimum Humidity 16    
Precipitation  
Precipitation 0.00 in - - ()
Sea Level Pressure  
Sea Level Pressure 30.09 in    
Wind  
Wind Speed 5 mph (WSW)    
Max Wind Speed 9 mph    
Max Gust Speed -    
Visibility 10 miles    
Events      
Averages and records for this station are not official NWS values.
T = Trace of Precipitation, MM = Missing Value Source: NWS Daily Summary

Daily Weather History Graph

Daily Weather History Graph

Search for Another Location

Airport or City:

Trip Planner

Search our weather history database for the weather conditions in past years. The results will help you decide how hot, cold, wet, or windy it might be!

Date:

Astronomy

Sep. 29, 2012 Rise Set
Actual Time 7:17 AM CDT 7:04 PM CDT
Civil Twilight 6:48 AM CDT 7:33 PM CDT
Nautical Twilight 6:13 AM CDT 8:08 PM CDT
Astronomical Twilight 5:38 AM CDT 8:43 PM CDT
Moon 6:34 PM CDT (9/29) 6:50 AM CDT (9/29)
Length of Visible Light 12h 45m
Length of Day
11h 46m
Full, 100% of the Moon is Illuminated
Sep 29
Full
Sep 29
Full
Oct 8
Last Quarter
Oct 15
New
Oct 21
First Quarter

Hourly Weather History & Observations

Time (CDT) Temp. Dew Point Humidity Pressure Visibility Wind Dir Wind Speed Gust Speed Precip Events Conditions
12:13 AM 57.2 °F 32.0 °F 38% 30.11 in 10.0 mi WSW 9.2 mph - N/A   Clear
12:34 AM 57.2 °F 33.8 °F 41% 30.11 in 10.0 mi WSW 8.1 mph - N/A   Clear
12:53 AM 57.2 °F 33.8 °F 41% 30.11 in 10.0 mi WSW 9.2 mph - N/A   Clear
1:13 AM 57.2 °F 33.8 °F 41% 30.11 in 10.0 mi WSW 8.1 mph - N/A   Clear
1:34 AM 55.4 °F 33.8 °F 44% 30.11 in 10.0 mi WSW 8.1 mph - N/A   Clear
1:53 AM 55.4 °F 33.8 °F 44% 30.12 in 10.0 mi WSW 8.1 mph - N/A   Clear
2:13 AM 55.4 °F 35.6 °F 47% 30.12 in 10.0 mi WSW 8.1 mph - N/A   Clear
2:34 AM 55.4 °F 35.6 °F 47% 30.12 in 10.0 mi WSW 8.1 mph - N/A   Clear
2:53 AM 57.2 °F 35.6 °F 44% 30.12 in 10.0 mi WSW 8.1 mph - N/A   Clear
3:13 AM 57.2 °F 35.6 °F 44% 30.12 in 10.0 mi WSW 8.1 mph - N/A   Clear
3:34 AM 57.2 °F 35.6 °F 44% 30.12 in 10.0 mi West 6.9 mph - N/A   Clear
3:53 AM 55.4 °F 35.6 °F 47% 30.12 in 10.0 mi West 8.1 mph - N/A   Clear
4:14 AM 55.4 °F 35.6 °F 47% 30.12 in 10.0 mi West 8.1 mph - N/A   Clear
4:34 AM 55.4 °F 35.6 °F 47% 30.12 in 10.0 mi West 8.1 mph - N/A   Clear
4:53 AM 55.4 °F 33.8 °F 44% 30.12 in 10.0 mi West 6.9 mph - N/A   Clear
5:14 AM 55.4 °F 33.8 °F 44% 30.12 in 10.0 mi West 6.9 mph - N/A   Clear
5:33 AM 55.4 °F 33.8 °F 44% 30.12 in 10.0 mi WNW 5.8 mph - N/A   Clear
5:53 AM 57.2 °F 35.6 °F 44% 30.12 in 10.0 mi WNW 3.5 mph - N/A   Clear
6:14 AM 55.4 °F 35.6 °F 47% 30.13 in 10.0 mi WNW 4.6 mph - N/A   Clear
6:33 AM 55.4 °F 35.6 °F 47% 30.13 in 10.0 mi WNW 5.8 mph - N/A   Clear
6:53 AM 53.6 °F 35.6 °F 51% 30.13 in 10.0 mi WNW 5.8 mph - N/A   Clear
7:14 AM 50.0 °F 35.6 °F 58% 30.14 in 10.0 mi North 3.5 mph - N/A   Clear
7:33 AM 50.0 °F 39.2 °F 66% 30.14 in 10.0 mi Calm Calm - N/A   Clear
7:53 AM 50.0 °F 39.2 °F 66% 30.14 in 10.0 mi Calm Calm - N/A   Clear
8:14 AM 51.8 °F 37.4 °F 58% 30.14 in 10.0 mi Calm Calm - N/A   Clear
8:33 AM 55.4 °F 39.2 °F 54% 30.14 in 10.0 mi Calm Calm - N/A   Clear
8:53 AM 60.8 °F 39.2 °F 45% 30.14 in 10.0 mi Calm Calm - N/A   Clear
9:14 AM 64.4 °F 37.4 °F 37% 30.15 in 7.0 mi Calm Calm - N/A   Clear
9:53 AM 68.0 °F 39.2 °F 35% 30.15 in 10.0 mi Calm Calm - N/A   Clear
10:14 AM 71.6 °F 37.4 °F 29% 30.14 in 10.0 mi Calm Calm - N/A   Clear
10:33 AM 73.4 °F 35.6 °F 25% 30.14 in 10.0 mi Calm Calm - N/A   Clear
10:53 AM 73.4 °F 35.6 °F 25% 30.14 in 10.0 mi Calm Calm - N/A   Clear
11:13 AM 75.2 °F 33.8 °F 22% 30.14 in 10.0 mi Calm Calm - N/A   Clear
11:33 AM 77.0 °F 33.8 °F 21% 30.13 in 10.0 mi Calm Calm - N/A   Clear
11:54 AM 78.8 °F 33.8 °F 20% 30.13 in 10.0 mi Calm Calm - N/A   Clear
12:33 PM 80.6 °F 33.8 °F 18% 30.12 in 10.0 mi WSW 4.6 mph - N/A   Clear
12:54 PM 80.6 °F 33.8 °F 18% 30.11 in 10.0 mi WSW 5.8 mph - N/A   Clear
1:13 PM 80.6 °F 33.8 °F 18% 30.11 in 10.0 mi West 5.8 mph - N/A   Clear
1:33 PM 80.6 °F 33.8 °F 18% 30.10 in 10.0 mi West 3.5 mph - N/A   Clear
1:54 PM 82.4 °F 33.8 °F 17% 30.10 in 10.0 mi West 4.6 mph - N/A   Clear
2:13 PM 82.4 °F 33.8 °F 17% 30.09 in 10.0 mi West 6.9 mph - N/A   Clear
2:34 PM 82.4 °F 33.8 °F 17% 30.08 in 10.0 mi Calm Calm - N/A   Clear
2:54 PM 82.4 °F 33.8 °F 17% 30.07 in 10.0 mi Calm Calm - N/A   Clear
3:13 PM 82.4 °F 33.8 °F 17% 30.07 in 10.0 mi WSW 4.6 mph - N/A   Clear
3:34 PM 82.4 °F 33.8 °F 17% 30.06 in 10.0 mi West 3.5 mph - N/A   Clear
3:53 PM 82.4 °F 33.8 °F 17% 30.05 in 10.0 mi Calm Calm - N/A   Clear
4:13 PM 84.2 °F 33.8 °F 16% 30.05 in 10.0 mi WSW 5.8 mph - N/A   Clear
4:34 PM 82.4 °F 33.8 °F 17% 30.04 in 10.0 mi South 3.5 mph - N/A   Clear
5:13 PM 82.4 °F 33.8 °F 17% 30.04 in 10.0 mi Calm Calm - N/A   Clear
5:34 PM 82.4 °F 33.8 °F 17% 30.04 in 10.0 mi SW 3.5 mph - N/A   Clear
5:53 PM 80.6 °F 33.8 °F 18% 30.04 in 10.0 mi SW 3.5 mph - N/A   Clear
6:13 PM 78.8 °F 35.6 °F 21% 30.03 in 10.0 mi Calm Calm - N/A   Clear
6:34 PM 78.8 °F 35.6 °F 21% 30.03 in 10.0 mi Calm Calm - N/A   Clear
6:53 PM 75.2 °F 35.6 °F 24% 30.03 in 10.0 mi Calm Calm - N/A   Clear
7:13 PM 73.4 °F 35.6 °F 25% 30.03 in 10.0 mi Calm Calm - N/A   Clear
7:34 PM 73.4 °F 35.6 °F 25% 30.03 in 10.0 mi Calm Calm - N/A   Clear
8:13 PM 68.0 °F 35.6 °F 30% 30.03 in 10.0 mi Calm Calm - N/A   Clear
8:34 PM 64.4 °F 35.6 °F 34% 30.04 in 10.0 mi Calm Calm - N/A   Clear
8:53 PM 66.2 °F 37.4 °F 35% 30.04 in 10.0 mi Calm Calm - N/A   Clear
9:13 PM 66.2 °F 37.4 °F 35% 30.04 in 10.0 mi SSE 3.5 mph - N/A   Clear
9:34 PM 64.4 °F 37.4 °F 37% 30.04 in 10.0 mi SSE 3.5 mph - N/A   Clear
9:53 PM 62.6 °F 37.4 °F 39% 30.04 in 10.0 mi SSE 3.5 mph - N/A   Clear
10:13 PM 62.6 °F 37.4 °F 39% 30.04 in 10.0 mi SSE 3.5 mph - N/A   Clear
10:34 PM 62.6 °F 37.4 °F 39% 30.04 in 10.0 mi Calm Calm - N/A   Clear
10:53 PM 62.6 °F 37.4 °F 39% 30.04 in 10.0 mi SSE 3.5 mph - N/A   Clear
11:14 PM 59.0 °F 39.2 °F 48% 30.04 in 10.0 mi East 3.5 mph - N/A   Clear
11:33 PM 53.6 °F 39.2 °F 58% 30.04 in 7.0 mi East 5.8 mph - N/A   Clear
11:53 PM 55.4 °F 37.4 °F 51% 30.04 in 10.0 mi East 5.8 mph - N/A   Clear